Regional Weather Roundup
Issued by NWS

Home | Current Version | Previous Version | Graphics & Text | Print | Product List | Glossary On
Versions: 1 2 3 4 5 6 7 8 9 10 11 12 13 14 15 16 17 18 19 20 21 22 23 24 25 26 27 28 29 30 31 32 33 34 35 36 37 38 39 40 41 42 43 44 45 46 47 48 49 50
642
ASUS44 KLIX 181008
RWRLA
LOUISIANA WEATHER ROUNDUP
NATIONAL WEATHER SERVICE NEW ORLEANS LA
500 AM CDT SAT APR 18 2015

NOTE: "FAIR" INDICATES FEW OR NO CLOUDS BELOW 12,000 FEET WITH NO
      SIGNIFICANT WEATHER AND/OR OBSTRUCTIONS TO VISIBILITY.
      SKY/WX - SKY CONDITION AND SIGNIFICANT WEATHER.
      TMP - AIR TEMPERATURE.    DP   - DEWPOINT TEMPERATURE.
      RH  - RELATIVE HUMIDITY.  PRES - PRESSURE.
      HX  - HEAT INDEX.         WCI  - WIND CHILL INDEX.

*  THESE STATIONS ARE NOT NWS OR FAA STATIONS AND ARE NOT UNDER
   NWS QUALITY CONTROL.

LAZ040-048-061>063-065-066-069-181100-
SOUTHEAST LOUISIANA

CITY           SKY/WX    TMP DP  RH WIND       PRES   REMARKS
N.O. AUDUBON   NOT AVBL
N.O. INTL ARPT TSTM      73  69  87 E5        29.89F
N.O. LAKEFRONT LGT RAIN  76  69  79 NE3       29.91S
SLIDELL        LGT RAIN  70  70 100 CALM      29.91R
BATON ROUGE    LGT RAIN  69  68  96 E3        29.91F
BOOTHVILLE     LGT RAIN  70  68  93 NE6       29.89R FOG
BELLE CHASSE   TSTM      72  70  93 NE3       29.89F FOG
BOGALUSA*      LGT RAIN  70  66  89 NE7       29.91F
GALLIANO*      TSTM      68  67  96 CALM      29.92S
NEW ROADS*     LGT RAIN  68  67  98 CALM      29.90F
GONZALES*      CLOUDY    70  70 100 CALM      29.90S THUNDER
HAMMOND*       CLOUDY    70  66  88 N5        29.92S
HOUMA*         TSTM      69  69  99 N5        29.90S
PORT FOURCHON* CLOUDY    70  68  94 NE15G23   29.93F

$$

LAZ041-044-053-054-181100-
SOUTHWEST LOUISIANA

CITY           SKY/WX    TMP DP  RH WIND       PRES   REMARKS
LAKE CHARLES   RAIN      68  67  96 E9        29.84F FOG
LAFAYETTE      RAIN      69  67  93 E5        29.89F FOG
PATTERSON      CLOUDY    70  68  94 N6        29.90F
SALT POINT       N/A     71  70  96 VRB3      29.87F
NEW IBERIA     RAIN      70  68  93 E8        29.89F FOG
CHENAULT AIRPK RAIN      67  67  99 E9        29.85F

$$

LAZ027-028-181100-
CENTRAL LOUISIANA

CITY           SKY/WX    TMP DP  RH WIND       PRES   REMARKS
FORT POLK      CLOUDY    68  67  96 SE7       29.85S
ALEXANDRIA INT CLOUDY    68  67  96 E8        29.83F
ALEXANDRIA     LGT RAIN  68  66  93 E7        29.86F

$$

LAZ001-002-181100-
NORTHWEST LOUISIANA

CITY           SKY/WX    TMP DP  RH WIND       PRES   REMARKS
SHREVEPORT     CLOUDY    68  66  93 E5        29.87F
BARKSDALE AFB  CLOUDY    67  66  98 VRB5      29.86F
DTN SHREVEPORT CLOUDY    67  63  87 NE6       29.87F

$$

LAZ014-016-181100-
NORTHEAST LOUISIANA

CITY           SKY/WX    TMP DP  RH WIND       PRES   REMARKS
MONROE         CLOUDY    67  66  97 E3        29.92F
TALLULAH       CLOUDY    67  64  90 E7        29.92F

$$




USA.gov is the U.S. government's official web portal to all federal, state and local government web resources and services.